DW5656 Weather Reports


Display with metric or nautical units.
time (UTC)temp
F
wind
direction
speed
MPH
gust
MPH
rain 1hr
in
rain 24hr
in
rain mn
in
humidity
%
barometer
mb
20171124232822 57 7 3.0 5.0 0.00 0.00 0.00 57 1019.0
20171124231922 57 351 2.0 6.0 0.00 0.00 0.00 57 1018.9
20171124231022 58 351 1.0 4.0 0.00 0.00 0.00 57 1018.8
20171124230122 58 355 2.0 3.0 0.00 0.00 0.00 57 1018.8
20171124225222 58 355 2.0 3.0 0.00 0.00 0.00 57 1018.6
20171124224322 59 355 2.0 4.0 0.00 0.00 0.00 56 1018.7
20171124223443 59 342 2.0 4.0 0.00 0.00 0.00 57 1018.7
20171124222522 59 334 1.0 3.0 0.00 0.00 0.00 56 1018.7
20171124221643 60 334 1.0 2.0 0.00 0.00 0.00 55 1018.6
20171124220722 60 334 1.0 2.0 0.00 0.00 0.00 54 1018.7
20171124215822 60 334 1.0 2.0 0.00 0.00 0.00 54 1018.8
20171124214922 60 334 1.0 3.0 0.00 0.00 0.00 54 1018.8
20171124214022 61 334 1.0 2.0 0.00 0.00 0.00 53 1018.8
20171124213122 61 331 2.0 3.0 0.00 0.00 0.00 53 1018.8
20171124212222 61 304 2.0 3.0 0.00 0.00 0.00 53 1018.9
20171124211322 61 214 1.0 3.0 0.00 0.00 0.00 52 1018.9
20171124210422 62 214 1.0 3.0 0.00 0.00 0.00 53 1018.9
20171124205522 62 214 0.0 2.0 0.00 0.00 0.00 53 1018.9
20171124204622 62 0 0.0 0.0 0.00 0.00 0.00 52 1018.8
20171124203722 63 214 0.0 1.0 0.00 0.00 0.00 51 1018.8
20171124202822 63 214 1.0 1.0 0.00 0.00 0.00 50 1018.9
20171124201922 63 214 0.0 1.0 0.00 0.00 0.00 49 1018.9
20171124201022 63 214 0.0 1.0 0.00 0.00 0.00 49 1018.9
20171124200143 64 214 0.0 1.0 0.00 0.00 0.00 49 1018.9
20171124195222 64 214 1.0 2.0 0.00 0.00 0.00 47 1018.8
20171124194322 64 214 1.0 3.0 0.00 0.00 0.00 48 1018.8
20171124193422 65 214 0.0 1.0 0.00 0.00 0.00 48 1018.6
20171124192543 65 0 0.0 0.0 0.00 0.00 0.00 42 1018.6
20171124191622 65 0 0.0 0.0 0.00 0.00 0.00 42 1018.6
20171124190722 66 0 0.0 0.0 0.00 0.00 0.00 42 1018.5
20171124185843 66 0 0.0 0.0 0.00 0.00 0.00 40 1018.5
20171124184922 67 0 0.0 0.0 0.00 0.00 0.00 40 1018.3
20171124184022 68 0 0.0 0.0 0.00 0.00 0.00 37 1018.4
20171124183122 68 0 0.0 0.0 0.00 0.00 0.00 36 1018.3
20171124182222 69 0 0.0 0.0 0.00 0.00 0.00 36 1018.1
20171124181322 69 0 0.0 0.0 0.00 0.00 0.00 36 1018.2
20171124180443 69 0 0.0 0.0 0.00 0.00 0.00 36 1018.1
20171124175522 70 214 1.0 1.0 0.00 0.00 0.00 34 1018.0
20171124174643 70 214 0.0 1.0 0.00 0.00 0.00 34 1018.0
20171124173722 71 214 0.0 1.0 0.00 0.00 0.00 34 1018.0
20171124172822 72 214 1.0 1.0 0.00 0.00 0.00 32 1017.9
20171124171922 72 214 1.0 2.0 0.00 0.00 0.00 31 1018.0
20171124171022 73 214 1.0 2.0 0.00 0.00 0.00 31 1018.0
20171124170122 74 214 1.0 2.0 0.00 0.00 0.00 29 1018.0
20171124165243 74 214 1.0 2.0 0.00 0.00 0.00 28 1017.9
20171124164322 75 223 1.0 3.0 0.00 0.00 0.00 28 1018.0
20171124163443 76 240 1.0 2.0 0.00 0.00 0.00 27 1018.0
20171124162522 76 240 0.0 2.0 0.00 0.00 0.00 27 1018.0
20171124161622 76 240 1.0 2.0 0.00 0.00 0.00 27 1018.0
20171124160722 76 240 1.0 3.0 0.00 0.00 0.00 26 1017.9
20171124155843 76 240 1.0 2.0 0.00 0.00 0.00 27 1017.8
20171124154922 76 242 1.0 3.0 0.00 0.00 0.00 27 1017.7
20171124154022 77 250 1.0 3.0 0.00 0.00 0.00 27 1017.9
20171124153143 77 261 0.0 2.0 0.00 0.00 0.00 27 1018.0
20171124152222 78 261 0.0 1.0 0.00 0.00 0.00 28 1018.0
20171124151322 78 261 0.0 1.0 0.00 0.00 0.00 29 1017.9
20171124150422 77 261 0.0 1.0 0.00 0.00 0.00 29 1017.9
20171124145522 76 261 1.0 2.0 0.00 0.00 0.00 30 1017.9
20171124144622 75 261 1.0 2.0 0.00 0.00 0.00 31 1017.9
20171124143743 75 232 1.0 3.0 0.00 0.00 0.00 32 1018.0
20171124142843 75 212 1.0 2.0 0.00 0.00 0.00 31 1017.9
20171124141922 74 226 2.0 3.0 0.00 0.00 0.00 32 1017.9
20171124141043 74 246 1.0 4.0 0.00 0.00 0.00 32 1018.1
20171124140122 73 259 1.0 3.0 0.00 0.00 0.00 33 1018.2
20171124135222 73 263 1.0 4.0 0.00 0.00 0.00 33 1018.4
20171124134322 73 307 0.0 4.0 0.00 0.00 0.00 34 1018.5
20171124133422 72 316 1.0 3.0 0.00 0.00 0.00 35 1018.6
20171124132522 72 333 1.0 3.0 0.00 0.00 0.00 37 1018.7
20171124131622 71 336 1.0 2.0 0.00 0.00 0.00 37 1018.8
20171124130743 71 336 1.0 3.0 0.00 0.00 0.00 38 1018.9
20171124125822 70 8 1.0 3.0 0.00 0.00 0.00 39 1018.9
20171124124943 69 37 2.0 4.0 0.00 0.00 0.00 40 1018.9
20171124124022 69 30 2.0 4.0 0.00 0.00 0.00 41 1018.9
20171124123122 68 5 2.0 5.0 0.00 0.00 0.00 42 1019.1
20171124122222 67 346 2.0 4.0 0.00 0.00 0.00 43 1019.2
20171124121322 67 360 3.0 5.0 0.00 0.00 0.00 44 1019.4
20171124120422 66 360 2.0 5.0 0.00 0.00 0.00 44 1019.4
20171124115522 66 355 2.0 5.0 0.00 0.00 0.00 45 1019.5
20171124114622 65 17 2.0 5.0 0.00 0.00 0.00 46 1019.6
20171124113722 64 20 2.0 4.0 0.00 0.00 0.00 48 1019.7
20171124112822 64 33 2.0 4.0 0.00 0.00 0.00 48 1019.8
20171124111922 63 28 3.0 5.0 0.00 0.00 0.00 49 1019.9
20171124111022 63 9 3.0 6.0 0.00 0.00 0.00 50 1020.0
20171124110122 62 10 2.0 5.0 0.00 0.00 0.00 51 1020.2
20171124105222 62 20 3.0 6.0 0.00 0.00 0.00 51 1020.3
20171124104322 61 4 2.0 5.0 0.00 0.00 0.00 51 1020.4
20171124103443 61 19 3.0 6.0 0.00 0.00 0.00 52 1020.5
20171124102522 60 20 3.0 7.0 0.00 0.00 0.00 54 1020.5
20171124101622 59 13 4.0 5.0 0.00 0.00 0.00 55 1020.4
20171124100722 58 30 4.0 9.0 0.00 0.00 0.00 55 1020.5
20171124095843 57 34 4.0 9.0 0.00 0.00 0.00 56 1020.4
20171124094922 56 24 4.0 8.0 0.00 0.00 0.00 57 1020.5
20171124094022 56 26 4.0 6.0 0.00 0.00 0.00 58 1020.6
20171124093143 56 28 4.0 8.0 0.00 0.00 0.00 58 1020.6
20171124092222 55 31 4.0 7.0 0.00 0.00 0.00 58 1020.5
20171124091322 55 28 4.0 8.0 0.00 0.00 0.00 60 1020.5
20171124090422 54 25 4.0 9.0 0.00 0.00 0.00 61 1020.4
20171124085522 53 14 3.0 8.0 0.00 0.00 0.00 63 1020.3
20171124084622 53 2 4.0 9.0 0.00 0.00 0.00 64 1020.3
20171124083743 53 354 4.0 7.0 0.00 0.00 0.00 63 1020.5
20171124082822 53 23 3.0 7.0 0.00 0.00 0.00 62 1020.1
20171124081943 52 28 4.0 8.0 0.00 0.00 0.00 64 1020.0
20171124081022 52 21 3.0 9.0 0.00 0.00 0.00 66 1019.9
20171124080143 51 16 3.0 7.0 0.00 0.00 0.00 68 1019.9
20171124075222 50 6 3.0 6.0 0.00 0.00 0.00 69 1019.8
20171124074322 50 354 4.0 8.0 0.00 0.00 0.00 70 1019.8
20171124073422 50 355 3.0 8.0 0.00 0.00 0.00 70 1019.7
20171124072522 50 356 3.0 6.0 0.00 0.00 0.00 70 1019.6
20171124071622 50 360 3.0 5.0 0.00 0.00 0.00 69 1019.4
20171124070743 51 3 2.0 4.0 0.00 0.00 0.00 69 1019.4
20171124065822 51 3 2.0 5.0 0.00 0.00 0.00 68 1019.3
20171124064922 51 15 3.0 5.0 0.00 0.00 0.00 67 1019.3
20171124064043 52 13 3.0 5.0 0.00 0.00 0.00 66 1019.2
20171124063143 52 4 3.0 4.0 0.00 0.00 0.00 66 1019.2
20171124062222 51 352 3.0 5.0 0.00 0.00 0.00 67 1019.2
20171124061322 51 347 3.0 5.0 0.00 0.00 0.00 68 1019.1
20171124060422 52 358 3.0 5.0 0.00 0.00 0.00 68 1019.2
20171124055522 52 351 2.0 5.0 0.00 0.00 0.00 67 1019.1
20171124054622 52 349 3.0 4.0 0.00 0.00 0.00 67 1019.2
20171124053743 52 354 3.0 5.0 0.00 0.00 0.00 67 1019.1
20171124052822 52 357 3.0 5.0 0.00 0.00 0.00 67 1019.0
20171124051922 52 8 3.0 5.0 0.00 0.00 0.00 67 1019.1
20171124051022 52 15 3.0 7.0 0.00 0.00 0.00 67 1019.0
20171124050122 52 358 2.0 5.0 0.00 0.00 0.00 66 1019.1
20171124045243 53 8 3.0 5.0 0.00 0.00 0.00 65 1019.1
20171124044322 53 15 2.0 7.0 0.00 0.00 0.00 64 1018.9
20171124043422 53 15 2.0 3.0 0.00 0.00 0.00 65 1018.9
20171124042522 53 15 2.0 3.0 0.00 0.00 0.00 65 1018.8
20171124041622 52 15 2.0 4.0 0.00 0.00 0.00 66 1018.9
20171124040722 52 7 3.0 4.0 0.00 0.00 0.00 66 1018.8